Location: Innsbruck
(47.2657°N, 11.3914°E)
Time: 11:46:37
(UTC+01:00)

XW-2F - Pass Details

Date: 09 December 2021
Orbit: 495 x 515 km, 97.5° (Epoch: 16 January)

Event Time Altitude Azimuth Distance (km) Brightness Sun altitude
Rises 18:52:12 0° 217° (SW) 2,611 ? -24.1°
Reaches altitude 10° 18:55:44 10° 253° (WSW) 1,738 ? -24.7°
Maximum altitude 18:56:54 11° 272° (W) 1,666 ? -24.9°
Drops below altitude 10° 18:58:06 10° 290° (WNW) 1,746 ? -25.1°
Sets 19:01:40 0° 326° (NW) 2,646 ? -25.7°
